STARLINK-1830, 46727

Orbit data source: Space-Track

STARLINK-1830, 46727 is a payload satellite owned by SpaceX/Seattle (US) in LEO that was launched on Sun, 18 Oct 2020 UTC via an FALCON 9 launch vehicle from the Air Force Eastern Test Range (AFETR). Payload-class satellites include a variety of spacecraft equipped with specific instruments for various scientific and technological missions. These include communications satellites like Starlink; space stations such as the ISS; scientific satellites like the Hubble; Earth observation satellites from companies like Planet Labs, Umbra, and HawkEye 360; GPS; miniature CubeSats for education and research; and military/defense satellites.

Loading next visibility...
Identifier
46727, 2020-073BK
Orbit
LEO
Country
Flag of USUS
Related business
Manufacturer
SpaceX/Seattle
Mission
Operational Commercial Communications
Bus & Motor
STARLINK, Unknown motor
Mass
260 kg wet, ~248 kg dry
Launch date (UTC)
2020-10-18 (5 years ago)
Launch vehicle
FALCON 9
Launch site
Air Force Eastern Test Range (AFETR)
Object type
Payload
Rocket body
Debris
Shape & HBR
Box + 1 Pan, 10.1 m
Radar Cross Section
13.562 m², Large (>1 m²)

Expand to show TLE details & history
Last TLE update: 6 hours ago

TLE from 6 hours ago
0 STARLINK-1830
1 46727U 20073BK  25288.78949517  .00001203  00000-0  99658-4 0  9990
2 46727  53.0528 147.1006 0001492  84.5322 275.5837 15.06382540275645
Epoch: 2025-10-15T18:56Z
TLE epoch observation values (Epoch: 2025-10-15T18:56:52.382Z)
Latitude
-0.00004°
Longitude
-161.67622°
Altitude
548.044 km
Speed
7.589 km/s
True Right ascension
09h 48m 24s
True Declination
0° 00' 00"
Sunlit
Object was in daylight at epoch
Visualization orbit readout
Latitude
Unknown
Longitude
Unknown
Altitude
Unknown
Speed
Unknown
Apparent Right ascension
Unknown
Apparent Declination
Unknown
Sunlit
N/A
Visualization observer readout
Local Sidereal Time
20:03:37
Azimuth
Unknown
Elevation
Unknown
Doppler factor
Unknown
Orbital elements
Apogee altitude
548.569 km
Perigee altitude
546.503 km
Semi-major axis
6,925.673 km
Eccentricity
0.00015
Inclination
53.0528°
RAAN
147.1006°
Arg. of periapsis
84.5322°
True anomaly
275.56668°
Mean anomaly
275.5837°
Eccentric anomaly
275.57519°
Mean motion
3.76574 °/min
Orbital period
95.6 mins
BSTAR
0.000099658
Loading maneuver chart data...
Computing Atmospheric mass density...
Loading historical data...
Loading historical data...
Loading historical data...
Loading historical data...
Loading historical data...
Loading historical data...
Loading historical data...

Documentation

Showing up to 5 results
|